User: anonymous   Login
Location: Tauranga
(37.6860°S, 176.1670°E)
Time: 07:03:40
(UTC+13:00)
Language:

Cosmos 2322 Rocket - Orbit

View from above orbital plane
View from above orbital plane
View from above satellite
View from above satellite

Ground track
Ground track

The orbit data is extracted from the following two-line orbital elements,

1 23705U 95058B   19321.61102153 -.00000294 +00000-0 -12671-3 0  9996
2 23705 071.0206 335.5259 0011395 020.8864 339.2722 14.15128754241861
Epoch (UTC): 17 November 2019 14:39:52
Eccentricity: 0.0011395
inclination: 71.0206°
perigee height: 833 km
apogee height: 850 km
right ascension of ascending node: 335.5259°
argument of perigee: 20.8864°
revolutions per day: 14.15128754
mean anomaly at epoch: 339.2722°
orbit number at epoch: 24186

The dashed part of the orbit path shows where the satellite is in the earth's shadow,  

DLR